Track STARLINK-1144 now! 10-day predictions STARLINK-1144 is classified as:
1 44933U 20001V 21024.61159603 .00000849 00000-0 77432-4 0 9994 2 44933 53.0011 101.7243 0001329 89.0373 271.0767 15.05578065 59273